Regional Weather Roundup
Issued by NWS Cleveland, OH

Home | Current Version | Previous Version | Graphics & Text | Print | Product List | Glossary On
Versions: 1 2 3 4 5 6 7 8 9 10 11 12 13 14 15 16 17 18 19 20 21 22 23 24 25 26 27 28 29 30 31 32 33 34 35 36 37 38 39 40 41 42 43 44 45 46 47 48 49 50
000
ASUS41 KCLE 280100
RWRCLE
OHIO REGIONAL WEATHER ROUNDUP
NATIONAL WEATHER SERVICE WILMINGTON, OH
900 PM EDT SUN JUL 27 2014

NOTE: "FAIR" INDICATES FEW OR NO CLOUDS BELOW 12,000 FEET WITH NO
SIGNIFICANT WEATHER AND/OR OBSTRUCTIONS TO VISIBILITY.

OHZ001>008-015>018-024>027-034-035-043-044-280200-
   NORTHWEST OHIO

CITY           SKY/WX    TMP DP  RH WIND       PRES   REMARKS
DEFIANCE       CLOUDY    67  62  84 CALM      29.71R
FINDLAY        MOCLDY    72  64  76 W10       29.68R
TOLEDO EXPRESS LGT RAIN  68  60  75 N12G23    29.71R
TOLEDO METCALF MOCLDY    69  59  70 N10G20    29.71R
LIMA           PTCLDY    71  66  84 W12       29.70S
$$

OHZ009>014-019>023-028>033-038-089-280200-
   NORTHEAST OHIO

CITY           SKY/WX    TMP DP  RH WIND       PRES   REMARKS
CLE-HOPKINS    TSTM      64  62  93 NW9       29.69R FOG
CLE-LAKEFRONT  CLOUDY    64  62  93 NW16      29.66R
CUY CO. ARPT   TSTM      68  64  88 NW18G30   29.67R
LORAIN-ELYRIA  LGT RAIN  68  62  81 NW10      29.68R
ASHTABULA      LGT RAIN  64  61  90 E6        29.62F
AKRON-CANTON   CLOUDY    71  63  75 S9        29.64F
WOOSTER        NOT AVBL
MANSFIELD      CLOUDY    72  69  90 W10G17    29.68R
YOUNGSTOWN     MOCLDY    65  60  84 SE12      29.62F THUNDER
$$

OHZ042-051>053-060>062-070>072-077>081-280200-
  SOUTHWEST OHIO

CITY           SKY/WX    TMP DP  RH WIND       PRES   REMARKS
CINC-COVINGTON MOCLDY    71  67  87 W8        29.77S
CINC-LUNKEN    MOCLDY    75  69  81 SW9       29.75R
HAMILTON       MOCLDY    75  66  73 NW7       29.75R
DAYTON         NOT AVBL
WRIGHT-PAT AFB NOT AVBL
DAYTON GENERAL PTCLDY    75  67  76 W8        29.73R
WILMINGTON     PTCLDY    74  67  78 W10       29.73R
$$

OHZ036-037-039>041-045>050-054>059-063>069-073>076-082>088-280200-
  CENTRAL AND SOUTHEAST OHIO

CITY           SKY/WX    TMP DP  RH WIND       PRES   REMARKS
COLUMBUS       CLOUDY    70  63  78 W5        29.68F
OSU AIRPORT    MOCLDY    67  63  87 SW5       29.69F
BOLTON FIELD   NOT AVBL
RICKENBACK AFB NOT AVBL
NEWARK         CLOUDY    70  67  90 SW9       29.66F
MARION         PTCLDY    69  63  81 NW8       29.68R
LANCASTER      LGT RAIN  73  68  84 W12G26    29.71R
ZANESVILLE     MOCLDY    69  65  86 SW8       29.66F
NEW PHILLY     CLOUDY    70  68  93 S3        29.67S
$$



USA.gov is the U.S. government's official web portal to all federal, state and local government web resources and services.